Location: ?
(35.4554°N, 139.3092°E)
Time: 22:44:13
(UTC+00:00)

Cosmos 1726 - Pass Details

Date: 21 April 2021
Orbit: 481 x 496 km, 82.5° (Epoch: 10 May)

Event Time Altitude Azimuth Distance (km) Brightness Sun altitude
Rises 18:52:13 0° 354° (N) 2,588 6.0 -14.1°
Reaches altitude 10° 18:54:20 10° 356° (N) 1,701 5.1 -13.7°
Maximum altitude 18:58:04 79° 82° (E) 509 2.2 -13.0°
Drops below altitude 10° 19:01:45 10° 171° (S) 1,684 4.6 -12.3°
Sets 19:03:51 0° 172° (S) 2,559 5.6 -11.9°
